• In Belarus
  • List of Countries
  • For 7 days
  • Water Temperature
  • Satellite Maps
  • Weather Map
  • Weather Widgets
  • user-avatar
    Login

    Hourly Weather Sobczyce

    Today, 20 March, Wednesday

    Time Temperature Precipitation Wind Pressure Humidity
    00:00 +2°C° 0 mm 2 mps 766 mmHg 79%
    01:00 +1°C° 0 mm 2 mps 766 mmHg 82%
    02:00 +1°C° 0 mm 2 mps 766 mmHg 85%
    03:00 +1°C° 0 mm 2 mps 767 mmHg 87%
    04:00 -1°C° 0 mm 2 mps 767 mmHg 90%
    05:00 +1°C° 0 mm 2 mps 767 mmHg 89%
    06:00 +1°C° 0 mm 2 mps 767 mmHg 88%
    07:00 +1°C° 0 mm 2 mps 768 mmHg 85%
    08:00 +3°C° 0 mm 2 mps 768 mmHg 77%
    09:00 +5°C° 0 mm 2 mps 768 mmHg 68%
    10:00 +7°C° 0 mm 3 mps 768 mmHg 60%
    11:00 +8°C° 0 mm 3 mps 768 mmHg 54%
    12:00 +9°C° 0 mm 3 mps 768 mmHg 49%
    13:00 +10°C° 0 mm 3 mps 768 mmHg 44%
    14:00 +10°C° 0 mm 3 mps 768 mmHg 44%
    15:00 +11°C° 0 mm 3 mps 767 mmHg 44%
    16:00 +11°C° 0 mm 3 mps 767 mmHg 44%
    17:00 +10°C° 0 mm 3 mps 767 mmHg 49%
    18:00 +8°C° 0 mm 2 mps 767 mmHg 55%
    19:00 +7°C° 0 mm 2 mps 768 mmHg 60%
    20:00 +6°C° 0 mm 2 mps 768 mmHg 62%
    21:00 +6°C° 0 mm 2 mps 768 mmHg 64%
    22:00 +5°C° 0 mm 3 mps 768 mmHg 66%
    23:00 +5°C° 0 mm 3 mps 768 mmHg 66%

    Tomorrow, 21 March, Thursday

    Time Temperature Precipitation Wind Pressure Humidity
    00:00 +5°C° 0 mm 3 mps 769 mmHg 65%
    01:00 +5°C° 0 mm 3 mps 769 mmHg 65%
    02:00 +5°C° 0 mm 3 mps 768 mmHg 68%
    03:00 +4°C° 0 mm 3 mps 768 mmHg 72%
    04:00 +4°C° 0 mm 3 mps 768 mmHg 75%
    05:00 +4°C° 0 mm 3 mps 768 mmHg 77%
    06:00 +5°C° 0 mm 3 mps 769 mmHg 80%
    07:00 +5°C° 0 mm 3 mps 769 mmHg 82%
    08:00 +7°C° 0 mm 3 mps 769 mmHg 80%
    09:00 +7°C° 0 mm 4 mps 769 mmHg 77%
    10:00 +10°C° 0 mm 4 mps 769 mmHg 75%
    11:00 +11°C° 0 mm 4 mps 769 mmHg 72%
    12:00 +12°C° 0 mm 4 mps 769 mmHg 69%
    13:00 +13°C° 0 mm 3 mps 768 mmHg 65%
    14:00 +13°C° 0 mm 3 mps 768 mmHg 65%
    15:00 +13°C° 0 mm 3 mps 768 mmHg 64%
    16:00 +14°C° 0 mm 3 mps 767 mmHg 64%
    17:00 +13°C° 0 mm 2 mps 767 mmHg 70%
    18:00 +12°C° 0 mm 2 mps 767 mmHg 76%
    19:00 +11°C° 0 mm 1 mps 767 mmHg 83%
    20:00 +10°C° 0 mm 1 mps 767 mmHg 85%
    21:00 +10°C° 0 mm 1 mps 768 mmHg 87%
    22:00 +10°C° 0 mm 1 mps 768 mmHg 89%
    23:00 +8°C° 0 mm 2 mps 768 mmHg 90%

    Day after tomorrow, 22 March, Friday

    Time Temperature Precipitation Wind Pressure Humidity
    00:00 +8°C° 0 mm 2 mps 768 mmHg 91%
    01:00 +8°C° 0 mm 2 mps 768 mmHg 92%
    02:00 +8°C° 0 mm 2 mps 768 mmHg 92%
    03:00 +7°C° 0 mm 2 mps 767 mmHg 93%
    04:00 +7°C° 0 mm 2 mps 767 mmHg 93%
    05:00 +7°C° 0 mm 2 mps 767 mmHg 93%
    06:00 +7°C° 0 mm 2 mps 767 mmHg 93%
    07:00 +8°C° 0 mm 2 mps 767 mmHg 92%
    08:00 +10°C° 0 mm 2 mps 768 mmHg 84%
    09:00 +13°C° 0 mm 2 mps 768 mmHg 76%
    10:00 +15°C° 0 mm 2 mps 768 mmHg 68%
    11:00 +16°C° 0 mm 2 mps 767 mmHg 64%
    12:00 +18°C° 0 mm 1 mps 767 mmHg 59%
    13:00 +19°C° 0 mm 1 mps 767 mmHg 55%
    14:00 +19°C° 0 mm 1 mps 766 mmHg 53%
    15:00 +20°C° 0 mm 1 mps 766 mmHg 52%
    16:00 +20°C° 0 mm 1 mps 765 mmHg 51%
    17:00 +18°C° 0 mm 1 mps 765 mmHg 56%
    18:00 +16°C° 0 mm 1 mps 765 mmHg 61%
    19:00 +14°C° 0 mm 1 mps 765 mmHg 67%
    20:00 +14°C° 0 mm 1 mps 765 mmHg 69%
    21:00 +13°C° 0 mm 2 mps 765 mmHg 72%
    22:00 +12°C° 0 mm 2 mps 765 mmHg 75%
    23:00 +12°C° 0 mm 2 mps 765 mmHg 76%

    23 March, Saturday

    Time Temperature Precipitation Wind Pressure Humidity
    00:00 +12°C° 0 mm 2 mps 764 mmHg 77%
    01:00 +10°C° 0 mm 2 mps 764 mmHg 78%
    02:00 +10°C° 0 mm 2 mps 764 mmHg 78%
    03:00 +9°C° 0 mm 2 mps 764 mmHg 77%
    04:00 +9°C° 0 mm 3 mps 764 mmHg 77%
    05:00 +9°C° 0 mm 3 mps 764 mmHg 77%
    06:00 +9°C° 0 mm 3 mps 764 mmHg 76%
    07:00 +9°C° 0 mm 3 mps 764 mmHg 76%
    08:00 +11°C° 0 mm 3 mps 764 mmHg 71%
    09:00 +13°C° 0 mm 3 mps 764 mmHg 66%
    10:00 +16°C° 0 mm 3 mps 764 mmHg 61%
    11:00 +17°C° 0 mm 3 mps 764 mmHg 58%
    12:00 +18°C° 0 mm 4 mps 764 mmHg 54%
    13:00 +19°C° 0 mm 4 mps 764 mmHg 51%
    14:00 +18°C° 0 mm 4 mps 764 mmHg 54%
    15:00 +17°C° 0 mm 4 mps 764 mmHg 57%
    16:00 +15°C° 0 mm 4 mps 764 mmHg 60%
    17:00 +14°C° 0 mm 4 mps 764 mmHg 65%
    18:00 +13°C° 0 mm 4 mps 765 mmHg 70%
    19:00 +12°C° 0 mm 4 mps 765 mmHg 75%
    20:00 +11°C° 0 mm 4 mps 765 mmHg 68%
    21:00 +10°C° 0 mm 4 mps 766 mmHg 62%
    22:00 +8°C° 0 mm 4 mps 766 mmHg 55%
    23:00 +7°C° 0 mm 4 mps 766 mmHg 55%

    24 March, Sunday

    Time Temperature Precipitation Wind Pressure Humidity
    00:00 +7°C° 0 mm 3 mps 766 mmHg 54%
    01:00 +5°C° 0 mm 3 mps 766 mmHg 53%
    02:00 +5°C° 0 mm 2 mps 766 mmHg 57%
    03:00 +5°C° 0 mm 2 mps 766 mmHg 60%
    04:00 +4°C° 0 mm 2 mps 766 mmHg 64%
    05:00 +4°C° 0 mm 2 mps 766 mmHg 65%
    06:00 +4°C° 0 mm 2 mps 766 mmHg 67%
    07:00 +4°C° 0 mm 2 mps 766 mmHg 68%
    08:00 +5°C° 0 mm 2 mps 766 mmHg 61%
    09:00 +7°C° 0 mm 2 mps 766 mmHg 54%
    10:00 +8°C° 0 mm 2 mps 765 mmHg 46%
    11:00 +9°C° 0 mm 2 mps 765 mmHg 43%
    12:00 +10°C° 0 mm 2 mps 764 mmHg 39%
    13:00 +12°C° 0 mm 2 mps 763 mmHg 35%
    14:00 +12°C° 0 mm 2 mps 763 mmHg 35%
    15:00 +12°C° 0 mm 1 mps 762 mmHg 35%
    16:00 +12°C° 0 mm 1 mps 762 mmHg 35%
    17:00 +11°C° 0 mm 1 mps 761 mmHg 39%
    18:00 +10°C° 0 mm 1 mps 761 mmHg 42%
    19:00 +8°C° 0 mm 1 mps 761 mmHg 46%
    20:00 +8°C° 0 mm 1 mps 761 mmHg 48%
    21:00 +7°C° 0 mm 1 mps 760 mmHg 50%
    22:00 +6°C° 0 mm 0 mps 760 mmHg 51%
    23:00 +6°C° 0 mm 1 mps 760 mmHg 53%

    25 March, Monday

    Time Temperature Precipitation Wind Pressure Humidity
    00:00 +6°C° 0 mm 1 mps 759 mmHg 54%
    01:00 +5°C° 0 mm 2 mps 759 mmHg 55%
    02:00 +4°C° 0 mm 3 mps 758 mmHg 56%
    03:00 +5°C° 0 mm 3 mps 758 mmHg 58%
    04:00 +6°C° 0 mm 4 mps 758 mmHg 59%
    05:00 +5°C° 0 mm 5 mps 757 mmHg 61%
    06:00 +3°C° 0 mm 5 mps 757 mmHg 64%
    07:00 +3°C° 0 mm 5 mps 757 mmHg 66%
    08:00 +4°C° 0 mm 6 mps 756 mmHg 64%
    09:00 +5°C° 0 mm 7 mps 756 mmHg 62%
    10:00 +6°C° 0 mm 8 mps 756 mmHg 59%
    11:00 +6°C° 0.1 mm 8 mps 755 mmHg 63%
    12:00 +6°C° 0.1 mm 8 mps 755 mmHg 66%
    13:00 +5°C° 0.1 mm 8 mps 754 mmHg 69%
    14:00 +5°C° 0.3 mm 9 mps 754 mmHg 64%
    15:00 +5°C° 0.3 mm 9 mps 754 mmHg 59%
    16:00 +5°C° 0.3 mm 9 mps 754 mmHg 54%
    17:00 +4°C° 0.1 mm 8 mps 754 mmHg 57%
    18:00 +3°C° 0.1 mm 7 mps 754 mmHg 60%
    19:00 +2°C° 0.1 mm 6 mps 754 mmHg 63%
    20:00 +2°C° 0 mm 7 mps 754 mmHg 63%
    21:00 +2°C° 0 mm 7 mps 753 mmHg 62%
    22:00 0°C° 0 mm 8 mps 753 mmHg 62%
    23:00 0°C° 0.1 mm 8 mps 753 mmHg 63%
    Show more